Location: Hermaringen
(48.5952°N, 10.2585°E)
Time: 10:53:23
(UTC+00:00)

Courier 1B - Pass Details

Date: 25 February 2026
Orbit: 962 x 1208 km, 28.3° (Epoch: 7 March)

Event Time Altitude Azimuth Distance (km) Brightness Sun altitude
Rises 18:18:12 0° 234° (SW) 3,769 11.4 -14.3°
Reaches altitude 10° 18:22:28 10° 210° (SSW) 2,872 10.3 -15.0°
Maximum altitude 18:25:39 14° 182° (S) 2,656 9.8 -15.5°
Drops below altitude 10° 18:28:54 10° 155° (SSE) 2,957 9.7 -16.0°
Enters shadow 18:30:35 - 144° (SE) 3,274 9.9 -16.3°
Sets 18:33:26 0° 131° (SE) 3,973 - -16.8°
